Regional Weather Roundup
Issued by NWS Northern Indiana

Home | Current Version | Previous Version | Text Only | Print | Product List | Glossary Off
Versions: 1 2 3 4 5 6 7 8 9 10 11 12 13 14 15 16 17 18 19 20 21 22 23 24 25 26 27 28 29 30 31 32 33 34 35 36 37 38 39 40 41 42 43 44 45 46 47 48 49 50

000
ASUS43 KIWX 220500
RWRIWX

KIWX WEATHER ROUNDUP
NATIONAL WEATHER SERVICE NORTHERN INDIANA
100 AM EDT FRI AUG 22 2014

NOTE: "FAIR" INDICATES FEW OR NO CLOUDS BELOW 12,000 FEET WITH NO
SIGNIFICANT WEATHER AND/OR OBSTRUCTIONS TO VISIBILITY.

* THESE STATIONS ARE NOT UNDER NWS QUALITY CONTROL. THEY ALSO MAY NOT
  REPORT WEATHER SUCH AS PRECIPITATION OR FOG.

INZ001>027-220600-
NORTHERN INDIANA

CITY           SKY/WX    TMP DP  RH WIND       PRES   REMARKS
VALPARAISO     CLOUDY    71  69  93 S3        29.98R
KNOX*          CLOUDY    71  68  90 S3        29.98R
SOUTH BEND     MOCLDY    72  69  90 S5        29.99R
GOSHEN         MOCLDY    72  69  90 S5        29.99S
MONTICELLO*    CLOUDY    72  71  96 SE3       29.98R
ANGOLA*        PTCLDY    72  70  94 CALM      30.00R
FORT WAYNE     CLOUDY    69  67  93 SW6       30.01R
PERU/GRISSOM   CLOUDY    70  70 100 SE3       30.00R

$$
INZ028>050-220600-
CENTRAL INDIANA

CITY           SKY/WX    TMP DP  RH WIND       PRES   REMARKS
LAFAYETTE      CLOUDY    74  73  97 CALM      29.98R
KOKOMO*        CLOUDY    70  66  88 S7        30.01R
MUNCIE*        CLOUDY    70  67  90 S7        30.02F
INDIANAPOLIS   LGT RAIN  76  72  87 E8        30.01R

$$
MIZ043>046-050>051-056>058-064>065-071>073-077>080-220600-
SOUTHWEST LOWER MICHIGAN

CITY           SKY/WX    TMP DP  RH WIND       PRES   REMARKS
BATTLE CREEK   CLOUDY    72  70  93 CALM      30.00R FOG
BENTON HARBOR  MOCLDY    72  70  93 S5        29.97R
COLDWATER*     PTCLDY    69  68  96 CALM      29.99S FOG
HILLSDALE*     PTCLDY    68  68 100 CALM      30.00S FOG
HOLLAND        PTCLDY    71  70  96 CALM      29.98R FOG
GRAND RAPIDS   MOCLDY    71  71 100 CALM      29.99R FOG
KALAMAZOO      MOCLDY    72  69  90 CALM      29.99S FOG
STURGIS*         N/A     70  70 100 SW3       29.99S FOG
THREE RIVERS*  MOCLDY    72  71  97 S5        30.00R FOG

$$
OHZ001>008-015>018-024>025-220600-
NORTHWEST OHIO

CITY           SKY/WX    TMP DP  RH WIND       PRES   REMARKS
DEFIANCE       MOCLDY    72  69  90 CALM      29.98S
FINDLAY        CLOUDY    72  69  90 CALM      29.98S
TOLEDO EXPRESS PTCLDY    70  69  97 CALM      29.98S
TOLEDO METCALF CLOUDY    72  68  87 S3        29.99S
LIMA           CLOUDY    74  71  91 S7        29.98S FOG

$$
&&


USA.gov is the U.S. government's official web portal to all federal, state and local government web resources and services.